Flag for South Africa Weather past 2 weeks in Pretoria, South Africa

Now
55 °F

Refreshingly cool.


Feels Like: 55 °F
Forecast: 45 / 76 °F
Wind: 1 mph from North

Location: Waterkloof Lmb

Current Time: May 24, 2015 at 10:02:06 PM

Latest Report: May 24, 2015 at 9:00 PM


Visibility: N/A

Pressure: 30.30 "Hg

Humidity: 55%

Dew point: 39 °F

Location of PretoriaLocation

Historic Weather in Pretoria — Graph

°F

Pretoria temperature yesterday

Maximum temperature yesterday: 68 °F (at 3:00 PM)
Minimum temperature yesterday: 43 °F (at 4:00 AM)
Average temperature yesterday: 54 °F

Past Weeks' High & Low Weather Summary

 TemperatureHumidityPressure
High81 °F (May 15, 1:00 PM)94% (May 23, 8:00 AM)30.51 "Hg (May 23, 8:00 AM)
Low41 °F (May 14, 5:00 AM)10% (May 14, 4:00 PM)30.15 "Hg (May 13, 3:00 PM)
Average60 °F50%30.33 "Hg
* Reported May 9 8:00 PM — May 24 8:00 PM, Pretoria, Weather by CustomWeather, © 2015

Note: Actual official high and low records may vary slightly from our data, if they occured in-between our weather recording intervals... More about our weather records

Advertising

Pretoria weather history for previous 24 hours

 ConditionsComfort  
Time TempWeatherWind HumidityBarometerVisibility
8:00 PM
Sun, May 24
55 °FRefreshingly cool.2 mph55%30.27 "HgN/A
7:00 PM57 °FRefreshingly cool.3 mph51%30.27 "HgN/A
6:00 PM63 °FMild.5 mph39%30.27 "HgN/A
5:00 PM68 °FMild.3 mph33%30.24 "HgN/A
4:00 PM70 °FMild.5 mph33%30.24 "HgN/A
3:00 PM70 °FMild.6 mph33%30.24 "HgN/A
2:00 PM70 °FMild.6 mph33%30.24 "HgN/A
1:00 PM70 °FMild.3 mph33%30.27 "HgN/A
12:00 PM68 °FMild.3 mph38%30.30 "HgN/A
11:00 AM66 °FMild.3 mph40%30.36 "HgN/A
10:00 AM63 °FMild.5 mph45%30.36 "HgN/A
9:00 AM61 °FRefreshingly cool.1 mph52%30.36 "HgN/A
8:00 AM54 °FCool.1 mph72%30.36 "HgN/A
7:00 AM41 °FQuite cool.2 mph93%30.33 "HgN/A
6:00 AM41 °FQuite cool.1 mph93%30.33 "HgN/A
5:00 AM43 °FQuite cool.1 mph87%30.33 "HgN/A
4:00 AM43 °FQuite cool.3 mph93%30.33 "HgN/A
3:00 AM43 °FQuite cool.1 mph93%30.33 "HgN/A
2:00 AM46 °FCool.1 mph82%30.36 "HgN/A
1:00 AM46 °FCool.1 mph82%30.36 "HgN/A
12:00 AM46 °FCool.2 mph82%30.39 "HgN/A
11:00 PM
Sat, May 23
46 °FCool.1 mph82%30.39 "HgN/A
10:00 PM50 °FCool.No wind76%30.39 "HgN/A
Weather by CustomWeather, © 2015

See weather overviewHow to use our weather pages